Home > Weather > Stavanger > Past weeks

Flag for Norway Past Weather in Stavanger, Norway — Yesterday and Last 2 Weeks

Now
55 °F

Partly sunny.


Feels Like: 55 °F
Forecast: 55 / 57 °F
Wind: 2 mph from North

Location: Stavanger / Sola

Current Time: Jun 25, 2016 at 7:23:29 AM

Latest Report: Jun 25, 2016 at 6:50 AM


Visibility: N/A

Pressure: 30.04 "Hg

Humidity: 100%

Dew Point: 55 °F

Location of StavangerLocation

Past Weather in Stavanger — Graph

°F

Stavanger Temperature Yesterday

Maximum temperature yesterday: 63 °F (at 1:50 PM)
Minimum temperature yesterday: 59 °F (at 4:50 PM)
Average temperature yesterday: 60 °F

High & Low Weather Summary for the Past Weeks

 TemperatureHumidityPressure
High70 °F (Jun 23, 2:50 PM)100% (Jun 17, 1:50 AM)30.12 "Hg (Jun 17, 1:50 AM)
Low45 °F (Jun 11, 3:50 AM)35% (Jun 13, 10:50 AM)29.53 "Hg (Jun 15, 3:50 AM)
Average58 °F76%29.83 "Hg
* Reported Jun 10 5:50 AM — Jun 25 5:50 AM, Stavanger, Weather by CustomWeather, © 2016

Note: Actual official high and low records may vary slightly from our data, if they occured in-between our weather recording intervals... More about our weather records

Advertising

Stavanger Weather History for the Previous 24 Hours

Scroll right to see more
 ConditionsComfort  
Time TempWeatherWind HumidityBarometerVisibility
5:50 AM
Sat, Jun 25
55 °FFog.No wind100%30.04 "Hg2 mi
4:50 AM55 °FFog.2 mph100%30.01 "Hg1 mi
3:50 AM57 °FDrizzle. Fog.2 mph94%30.01 "Hg1 mi
2:50 AM57 °FFog.3 mph94%30.01 "Hg1 mi
1:50 AM57 °FDense fog.5 mph94%30.04 "Hg1 mi
12:50 AM57 °FFog.5 mph94%30.04 "Hg1 mi
12:20 AM57 °FFog.7 mph94%30.04 "Hg3 mi
11:50 PM
Fri, Jun 24
59 °FMostly cloudy.6 mph94%30.01 "Hg6 mi
11:20 PM59 °FBroken clouds.5 mph94%30.01 "Hg6 mi
10:50 PM59 °FBroken clouds.3 mph94%30.01 "HgN/A
10:20 PM59 °FBroken clouds.2 mph94%29.98 "HgN/A
9:50 PM59 °FBroken clouds.2 mph94%29.98 "HgN/A
9:20 PM59 °FBroken clouds.7 mph94%29.98 "Hg6 mi
8:50 PM59 °FBroken clouds.8 mph94%29.98 "Hg5 mi
8:20 PM59 °FPartly sunny.9 mph94%29.95 "Hg5 mi
7:50 PM59 °FLow clouds.8 mph94%29.95 "HgN/A
7:20 PM59 °FLow clouds.8 mph94%29.92 "Hg5 mi
6:50 PM59 °FLow clouds.8 mph94%29.92 "HgN/A
6:20 PM59 °FLow clouds.8 mph94%29.92 "HgN/A
5:50 PM59 °FLow clouds.9 mph100%29.89 "Hg5 mi
5:20 PM59 °FDrizzle. Low clouds.9 mph94%29.89 "Hg4 mi
4:50 PM59 °FFog.10 mph100%29.86 "Hg3 mi
4:20 PM61 °FDrizzle. Fog.12 mph94%29.86 "Hg2 mi
3:50 PM61 °FDrizzle. Fog.13 mph94%29.86 "Hg2 mi
3:20 PM61 °FDrizzle. Fog.13 mph94%29.86 "Hg3 mi
2:50 PM61 °FDrizzle. Fog.15 mph94%29.83 "Hg3 mi
2:20 PM61 °FDrizzle. Broken clouds.15 mph100%29.83 "Hg3 mi
1:50 PM63 °FDrizzle. Fog.12 mph94%29.83 "Hg2 mi
1:20 PM61 °FDrizzle. Fog.6 mph100%29.83 "Hg2 mi
12:50 PM61 °FDrizzle. Fog.9 mph94%29.83 "Hg2 mi
12:20 PM61 °FDrizzle. Fog.8 mph94%29.86 "Hg2 mi
11:50 AM61 °FDrizzle. Fog.7 mph94%29.86 "Hg4 mi
11:20 AM61 °FDrizzle. Fog.7 mph100%29.86 "Hg3 mi
10:50 AM61 °FDrizzle. Fog.7 mph100%29.89 "Hg3 mi
10:20 AM61 °FDrizzle. Fog.5 mph100%29.89 "Hg2 mi
9:50 AM61 °FRain. Broken clouds.2 mph100%29.89 "Hg4 mi
9:20 AM61 °FRain. Light fog.2 mph94%29.92 "Hg5 mi
8:50 AM61 °FRain. Partly sunny.3 mph94%29.92 "Hg6 mi
7:50 AM61 °FLight rain. Partly sunny.2 mph94%29.92 "Hg6 mi
7:20 AM61 °FLight rain. Partly sunny.No wind94%29.92 "Hg6 mi
Weather by CustomWeather, © 2016

See weather overviewHow to use our weather pages